Regional Weather Roundup
Issued by NWS Little Rock, AR

Home | Current Version | Previous Version | Text Only | Print | Product List | Glossary On
Versions: 1 2 3 4 5 6 7 8 9 10 11 12 13 14 15 16 17 18 19 20 21 22 23 24 25 26 27 28 29 30 31 32 33 34 35 36 37 38 39 40 41 42 43 44 45 46 47 48 49 50
000
ASUS44 KLZK 271805
RWRLZK

WEATHER ROUNDUP FOR ARKANSAS
NATIONAL WEATHER SERVICE LITTLE ROCK AR
100 PM CDT MON APR 27 2015

NOTE: "FAIR" INDICATES FEW OR NO CLOUDS BELOW 12,000 FEET WITH NO
SIGNIFICANT WEATHER AND/OR OBSTRUCTIONS TO VISIBILITY.

ARZ001-003-010-029-271900-
NORTHWEST ARKANSAS

CITY           SKY/WX    TMP DP  RH WIND       PRES   REMARKS
FAYETTEVILLE   CLOUDY    58  34  40 E13G23    29.94F
6HR MIN TEMP:  49; 6HR MAX TEMP:  58; 6HR PCP: TRACE;

FORT SMITH     MOSUNNY   63  40  42 E22G32    29.90F
6HR MIN TEMP:  53; 6HR MAX TEMP:  63; 6HR PCP: TRACE;

HARRISON       LGT RAIN  60  32  34 E15G25    30.00F
6HR MIN TEMP:  47; 6HR MAX TEMP:  60; 6HR PCP: TRACE;

BENTONVILLE    MOSUNNY   61  30  31 E17G26    29.97S
ROGERS         MOSUNNY   59  28  30 E22G30    29.97F
6HR MIN TEMP:  50; 6HR MAX TEMP:  60;

SILOAM SPGS    PTSUNNY  N/A N/A N/A E13G20    29.96S
HIGHFILL       PTSUNNY   60  32  34 E16G32    29.95S
6HR MIN TEMP:  50; 6HR MAX TEMP:  61; 6HR PCP: TRACE;

SPRINGDALE     PTSUNNY   59  34  38 E20G32    29.97R
$$

ARZ004-005-016-271900-
NORTH CENTRAL ARKANSAS

CITY           SKY/WX    TMP DP  RH WIND       PRES   REMARKS
BATESVILLE     PTSUNNY   61  34  36 E14G28    30.01F
6HR MIN TEMP:  48; 6HR MAX TEMP:  61;

FLIPPIN        PTSUNNY   63  34  34 E14G20    30.00F
6HR MIN TEMP:  46; 6HR MAX TEMP:  63;

MTN HOME       PTSUNNY   61  34  36 E12G21    30.00F
6HR MIN TEMP:  47; 6HR MAX TEMP:  61;

$$

ARZ040-041-271900-
WEST CENTRAL ARKANSAS

CITY           SKY/WX    TMP DP  RH WIND       PRES   REMARKS
MENA           SUNNY     64  45  48 E23G29    29.88F
MOUNT IDA      SUNNY     61  44  53 E9G20     29.89F
6HR MIN TEMP:  52; 6HR MAX TEMP:  61;

$$

ARZ009-017-025-026-028-271900-
NORTHEAST ARKANSAS

CITY           SKY/WX    TMP DP  RH WIND       PRES   REMARKS
CORNING          N/A     61  37  41 NE17G23   30.05S
JONESBORO      CLOUDY    57  41  55 NE25G33   30.02F
6HR MIN TEMP:  48; 6HR MAX TEMP:  59;

NEWPORT        PTSUNNY   60  43  53 NE21G26   30.02F
6HR MIN TEMP:  49; 6HR MAX TEMP:  60; 6HR PCP: TRACE;

WALNUT RIDGE   PTSUNNY   61  37  41 NE20G25   30.03F
6HR MIN TEMP:  46; 6HR MAX TEMP:  61;

BLYTHEVILLE    CLOUDY    62  39  42 NE18      30.02F
6HR MIN TEMP:  49; 6HR MAX TEMP:  62;

$$

ARZ022-023-033-042-044-271900-
CENTRAL ARKANSAS

CITY           SKY/WX    TMP DP  RH WIND       PRES   REMARKS
LITTLE ROCK    PTSUNNY   62  42  47 E22G28    29.97S
6HR MIN TEMP:  53; 6HR MAX TEMP:  62; 6HR PCP:  0.02;

N LITTLE ROCK  PTSUNNY   61  50  67 NE16G24   29.97S
6HR MIN TEMP:  50; 6HR MAX TEMP:  61;

JACKSONVILLE   PTSUNNY   59  43  55 E16       29.98S
6HR MIN TEMP:  53; 6HR MAX TEMP:  59; 6HR PCP: TRACE;

SEARCY         PTSUNNY   61  42  49 E20       30.00F
6HR MIN TEMP:  52; 6HR MAX TEMP:  61;

HOT SPRINGS    LGT RAIN  63  45  51 E22G29    29.91F
6HR MIN TEMP:  52; 6HR MAX TEMP:  63; 6HR PCP:  0.05;

RUSSELLVILLE   MOSUNNY   63  38  39 E15G24    29.95F
6HR MIN TEMP:  52; 6HR MAX TEMP:  64; 6HR PCP:  0.01;

CLINTON        FAIR      59  39  47 NE9       29.99F
$$

ARZ036-271900-
EAST ARKANSAS

CITY           SKY/WX    TMP DP  RH WIND       PRES   REMARKS
WEST MEMPHIS   CLOUDY    60  44  55 E15       29.97F
6HR MIN TEMP:  51; 6HR MAX TEMP:  60;

$$

ARZ050-053-066-070-073-271900-
SOUTHWEST ARKANSAS

CITY           SKY/WX    TMP DP  RH WIND       PRES   REMARKS
ARKADELPHIA    FAIR      65  49  56 NE9       29.90F
6HR MIN TEMP:  54; 6HR MAX TEMP:  65; 6HR PCP:  0.02;

CAMDEN         MOSUNNY   66  48  52 N13       29.87F
TEXARKANA      SUNNY     66  51  58 E13G24    29.82F
6HR MIN TEMP:  53; 6HR MAX TEMP:  66; 6HR PCP:  0.07;

EL DORADO      MOSUNNY   66  48  52 NE16G26   29.86S
6HR MIN TEMP:  56; 6HR MAX TEMP:  66; 6HR PCP: TRACE;

DE QUEEN       SUNNY     65  49  56 E18G29    29.83S
6HR MIN TEMP:  55; 6HR MAX TEMP:  65;

$$

ARZ056-057-069-271900-
SOUTHEAST ARKANSAS

CITY           SKY/WX    TMP DP  RH WIND       PRES   REMARKS
PINE BLUFF     MOSUNNY   62  47  57 NE17G24   29.94F
6HR MIN TEMP:  54; 6HR MAX TEMP:  62; 6HR PCP:  0.02;

STUTTGART      CLOUDY    63  45  51 NE22      29.97F
6HR MIN TEMP:  54; 6HR MAX TEMP:  63;

MONTICELLO     MOSUNNY   66  47  50 NE18      29.89F
6HR MIN TEMP:  57; 6HR MAX TEMP:  66;


$$





USA.gov is the U.S. government's official web portal to all federal, state and local government web resources and services.